Location: Jackson Park
(37.2862°N, 79.9123°W)
Time: 23:26:27
(UTC+00:00)

Transit 4A - Pass Details

Date: 17 May 2026
Orbit: 861 x 980 km, 66.8° (Epoch: 5 June)

Event Time Altitude Azimuth Distance (km) Brightness Sun altitude
Rises 14:08:37 0° 253° (WSW) 3,558 10.6 45.6°
Reaches altitude 10° 14:11:54 10° 270° (W) 2,642 10.0 46.2°
Maximum altitude 14:16:11 19° 315° (NW) 2,088 9.6 47.1°
Drops below altitude 10° 14:20:33 10° 359° (N) 2,703 10.3 47.9°
Sets 14:23:59 0° 17° (NNE) 3,668 11.0 48.6°
